Weather History for Casper, WY

Change the Weather History Date:

Saturday, November 9, 2013

  Actual Average Record
Temperature  
Mean Temperature 35 °F 36 °F  
Max Temperature 50 °F 49 °F 68 °F (2007)
Min Temperature 20 °F 24 °F -6 °F (1950)
Degree Days  
Heating Degree Days 30 29  
Month to date heating degree days 267 242  
Since 1 July heating degree days 1156 1141  
Cooling Degree Days 0 0  
Month to date cooling degree days 0 0  
Year to date cooling degree days 618 422  
Moisture  
Dew Point 22 °F    
Average Humidity 63    
Maximum Humidity 88    
Minimum Humidity 38    
Precipitation  
Precipitation 0.00 in 0.03 in 0.33 in (2010)
Month to date precipitation 0.01 0.27  
Year to date precipitation 13.71 11.54  
Snow  
Snow 0.00 in 0.30 in - ()
Month to date snowfall 0.1 2.8  
Since 1 July snowfall 21.3 12.0  
Since 1 September snowfall 21.3 12.0  
Snow Depth 0.00 in    
Sea Level Pressure  
Sea Level Pressure 30.19 in    
Wind  
Wind Speed 5 mph (ENE)    
Max Wind Speed 14 mph    
Max Gust Speed 18 mph    
Visibility 10 miles    
Events      
T = Trace of Precipitation, MM = Missing Value Source: NWS Daily Summary

Daily Weather History Graph

Daily Weather History Graph

Search for Another Location

Airport:

Trip Planner

Search our weather history database for the weather conditions in past years. The results will help you decide how hot, cold, wet, or windy it might be!

Date:

Astronomy

Nov. 09, 2013 Rise Set
Actual Time 6:50 AM MST 4:48 PM MST
Civil Twilight 6:20 AM MST 5:18 PM MST
Nautical Twilight 5:46 AM MST 5:52 PM MST
Astronomical Twilight 5:13 AM MST 6:25 PM MST
Moon 12:27 PM MST (11/9) 11:23 PM MST (11/9)
Length of Visible Light 10h 57m
Length of Day
9h 57m
Waxing Crescent, 45% of the Moon is Illuminated
Nov 9
Waxing Crescent
Nov 9
First Quarter
Nov 17
Full
Nov 25
Last Quarter
Dec 2
New

Hourly Weather History & Observations

Time (MST) Temp. Windchill Dew Point Humidity Pressure Visibility Wind Dir Wind Speed Gust Speed Precip Events Conditions
12:53 AM 30.0 °F 26.5 °F 21.9 °F 72% 30.01 in 10.0 mi NNW 3.5 mph - N/A   Overcast
1:53 AM 28.0 °F - 21.0 °F 75% 30.03 in 10.0 mi Calm Calm - N/A   Overcast
2:53 AM 24.1 °F 19.7 °F 19.0 °F 81% 30.06 in 10.0 mi NNW 3.5 mph - N/A   Scattered Clouds
3:53 AM 30.0 °F - 21.9 °F 72% 30.06 in 10.0 mi Calm Calm - N/A   Overcast
4:53 AM 28.0 °F - 23.0 °F 81% 30.14 in 10.0 mi Calm Calm - N/A   Overcast
5:53 AM 27.0 °F 20.5 °F 21.9 °F 81% 30.18 in 10.0 mi North 5.8 mph - N/A   Mostly Cloudy
6:53 AM 28.9 °F - 23.0 °F 78% 30.21 in 10.0 mi Calm Calm - N/A   Overcast
7:53 AM 33.1 °F - 24.1 °F 70% 30.21 in 10.0 mi Calm Calm - N/A   Overcast
8:53 AM 39.0 °F 34.8 °F 24.1 °F 55% 30.24 in 10.0 mi ENE 5.8 mph - N/A   Mostly Cloudy
9:53 AM 42.1 °F 36.1 °F 23.0 °F 47% 30.23 in 10.0 mi ENE 10.4 mph - N/A   Clear
10:53 AM 44.1 °F 40.8 °F 23.0 °F 43% 30.22 in 10.0 mi ESE 5.8 mph - N/A   Clear
11:53 AM 46.0 °F 44.8 °F 23.0 °F 40% 30.20 in 10.0 mi Variable 3.5 mph - N/A   Clear
12:53 PM 48.0 °F - 24.1 °F 39% 30.17 in 10.0 mi East 4.6 mph - N/A   Clear
1:53 PM 48.9 °F - 24.1 °F 38% 30.15 in 10.0 mi Variable 4.6 mph - N/A   Clear
2:53 PM 48.0 °F - 25.0 °F 41% 30.19 in 10.0 mi East 9.2 mph - N/A   Clear
3:53 PM 46.0 °F 40.6 °F 24.1 °F 42% 30.18 in 10.0 mi East 11.5 mph - N/A   Clear
4:53 PM 41.0 °F 34.3 °F 24.1 °F 51% 30.22 in 10.0 mi East 11.5 mph - N/A   Clear
5:53 PM 37.0 °F 29.3 °F 23.0 °F 57% 30.25 in 10.0 mi East 11.5 mph - N/A   Clear
6:53 PM 36.0 °F 28.5 °F 23.0 °F 59% 30.25 in 10.0 mi East 10.4 mph - N/A   Clear
7:53 PM 33.1 °F - 23.0 °F 66% 30.26 in 10.0 mi Calm Calm - N/A   Clear
8:53 PM 30.0 °F 26.5 °F 21.9 °F 72% 30.25 in 10.0 mi SE 3.5 mph - N/A   Clear
9:53 PM 24.1 °F - 19.9 °F 84% 30.27 in 10.0 mi Calm Calm - N/A   Clear
10:53 PM 23.0 °F 17.0 °F 19.0 °F 85% 30.25 in 10.0 mi WNW 4.6 mph - N/A   Clear
11:53 PM 21.0 °F 14.6 °F 17.1 °F 85% 30.25 in 10.0 mi NNW 4.6 mph - N/A   Clear